Location: Altenhof
(50.2418°N, 10.8789°E)
Time: 08:48:55
(UTC+00:00)

Cosmos 1934 Rocket - Pass Details

Date: 18 February 2020
Orbit: 939 x 998 km, 83.0° (Epoch: 03 April)

Event Time Altitude Azimuth Distance (km) Brightness Sun altitude
Rises 04:06:27 0° 345° (NNW) 3,688 7.0 -22.5°
Reaches altitude 10° 04:09:05 10° 339° (NNW) 2,745 6.2 -22.0°
Maximum altitude 04:14:53 41° 272° (W) 1,413 4.3 -21.1°
Enters shadow 04:17:10 30° 229° (SW) 1,692 4.8 -20.8°
Exits shadow 04:18:54 19° 213° (SSW) 2,163 5.5 -20.5°
Drops below altitude 10° 04:20:43 10° 205° (SSW) 2,756 6.1 -20.2°
Sets 04:23:23 0° 198° (SSW) 3,704 6.8 -19.8°
